Regional Weather Roundup
Issued by NWS

Home | Current Version | Previous Version | Text Only | Print | Product List | Glossary Off
Versions: 1 2 3 4 5 6 7 8 9 10 11 12 13 14 15 16 17 18 19 20 21 22 23 24 25 26 27

000
ASUS45 KBOI 222310
RWRID

IDAHO REGIONAL WEATHER ROUNDUP
NATIONAL WEATHER SERVICE BOISE ID
500 PM MDT TUE AUG 22 2017

NOTE: "FAIR" INDICATES FEW OR NO CLOUDS BELOW 12000 FEET
WITH NO SIGNIFICANT WEATHER AND/OR OBSTRUCTIONS TO VISIBILITY

IDZ012-014-230000-
SOUTHWEST IDAHO


CITY           SKY/WX    TMP DP  RH WIND       PRES   REMARKS
BOISE          SUNNY     93  45  19 N7        30.02F
CALDWELL       SUNNY     91  49  23 NW6       30.00F
MOUNTAIN HOME  SUNNY     95  33  11 NW8       30.01F HX  90
$$

IDZ016-017-230000-
SOUTHCENTRAL IDAHO


CITY           SKY/WX    TMP DP  RH WIND       PRES   REMARKS
BURLEY         MOSUNNY   90  37  15 W3        30.08F
JEROME         SUNNY     88  47  24 W7        30.09F
TWIN FALLS     MOSUNNY   88  42  20 NW6       30.10F
$$

IDZ019>023-230000-
SOUTHEAST IDAHO


CITY           SKY/WX    TMP DP  RH WIND       PRES   REMARKS
IDAHO FALLS    SUNNY     89  31  12 SW9       30.15F
POCATELLO      MOSUNNY   91  33  12 W5        30.13F
REXBURG        SUNNY     86  30  13 S3        30.16F
$$

IDZ006-010-011-018-031-032-230000-
CENTRAL IDAHO MOUNTAINS


CITY           SKY/WX    TMP DP  RH WIND       PRES   REMARKS
MCCALL         SUNNY     85  39  19 SW9       30.17F
HAILEY         MOSUNNY   84  43  23 SE7       30.18F
STANLEY          N/A     84  24  11 W7        30.25F
SALMON         SUNNY     89  40  17 NW6       30.06F
CHALLIS        SUNNY     89  27  10 E6        30.11F
$$

IDZ002-004-006-007-026-230000-
NORTHERN IDAHO


CITY           SKY/WX    TMP DP  RH WIND       PRES   REMARKS
LEWISTON       SUNNY     95  39  14 VRB3      29.93F HX  91
LOWELL           N/A     91  52  26 CALM      29.94F
COEUR D`ALENE  SUNNY     90  42  18 SW6       30.00F
MULLAN PASS    SUNNY     76  35  22 VRB3      30.24F
$$




USA.gov is the U.S. government's official web portal to all federal, state and local government web resources and services.